Location: Arpaise
(41.0333°N, 14.7333°E)
Time: 17:02:19
(UTC+00:00)

VEP-3 - Pass Details

Date: 05 July 2020
Orbit: 1021 x 33722 km, 23.7° (Epoch: 10 August)

Event Time Altitude Azimuth Distance (km) Brightness Sun altitude
Rises 19:53:50 0° 240° (WSW) 3,866 5.8 -12.3°
Reaches altitude 10° 19:56:52 10° 221° (SW) 2,797 4.8 -12.7°
Maximum altitude 20:00:58 20° 170° (S) 2,436 4.1 -13.2°
Enters shadow 20:03:40 17° 142° (SE) 3,071 4.4 -13.6°
